When you browse on this site, cookies collect data to enhance your experience and personalize the content and advertising you see.
Visit our Privacy Policy to learn more. By continuing to use the site, you agree to this use of cookies and data.
  • In United Kingdom
  • List of Countries
  • For 7 days
  • Water Temperature
  • Weather Map
  • Weather Widgets
  • user-avatar
    Login

    Hourly Weather Sankt Polten

    Today, 29 February, Saturday

    Time Temperature Precipitation Wind Pressure Humidity
    00:00 -2°C° 0 mm 2 mps 737 mmHg 81%
    01:00 -1°C° 0 mm 1 mps 737 mmHg 79%
    02:00 0°C° 0 mm 1 mps 736 mmHg 78%
    03:00 0°C° 0 mm 1 mps 735 mmHg 76%
    04:00 +1°C° 0 mm 1 mps 735 mmHg 75%
    05:00 +1°C° 0 mm 1 mps 734 mmHg 74%
    06:00 +1°C° 0 mm 1 mps 733 mmHg 73%
    07:00 -1°C° 0 mm 2 mps 733 mmHg 72%
    08:00 +3°C° 0 mm 1 mps 732 mmHg 69%
    09:00 +5°C° 0 mm 1 mps 732 mmHg 66%
    10:00 +6°C° 0 mm 1 mps 731 mmHg 63%
    11:00 +7°C° 0 mm 1 mps 730 mmHg 64%
    12:00 +8°C° 0 mm 1 mps 730 mmHg 66%
    13:00 +8°C° 0 mm 1 mps 729 mmHg 67%
    14:00 +8°C° 0 mm 1 mps 728 mmHg 70%
    15:00 +8°C° 0 mm 1 mps 728 mmHg 72%
    16:00 +8°C° 0 mm 1 mps 727 mmHg 74%
    17:00 +7°C° 0 mm 1 mps 727 mmHg 76%
    18:00 +6°C° 0 mm 1 mps 727 mmHg 77%
    19:00 +5°C° 0 mm 1 mps 727 mmHg 79%
    20:00 +4°C° 0 mm 1 mps 727 mmHg 80%
    21:00 +4°C° 0 mm 1 mps 726 mmHg 80%
    22:00 +3°C° 0 mm 2 mps 726 mmHg 81%
    23:00 +3°C° 0 mm 2 mps 727 mmHg 81%

    Tomorrow, 1 March, Sunday

    Time Temperature Precipitation Wind Pressure Humidity
    00:00 +3°C° 0 mm 2 mps 727 mmHg 80%
    01:00 +3°C° 0 mm 2 mps 727 mmHg 80%
    02:00 +4°C° 0 mm 1 mps 727 mmHg 80%
    03:00 +4°C° 0 mm 1 mps 727 mmHg 80%
    04:00 +4°C° 0 mm 1 mps 727 mmHg 81%
    05:00 +4°C° 0 mm 1 mps 727 mmHg 81%
    06:00 +5°C° 0 mm 1 mps 727 mmHg 80%
    07:00 +5°C° 0 mm 1 mps 728 mmHg 80%
    08:00 +5°C° 0.3 mm 1 mps 728 mmHg 84%
    09:00 +5°C° 0.3 mm 1 mps 728 mmHg 87%
    10:00 +5°C° 0.3 mm 1 mps 728 mmHg 91%
    11:00 +6°C° 0.1 mm 1 mps 728 mmHg 91%
    12:00 +6°C° 0.1 mm 1 mps 727 mmHg 91%
    13:00 +7°C° 0.1 mm 1 mps 727 mmHg 90%
    14:00 +7°C° 0.1 mm 1 mps 727 mmHg 89%
    15:00 +8°C° 0.1 mm 1 mps 727 mmHg 87%
    16:00 +7°C° 0.1 mm 0 mps 726 mmHg 85%
    17:00 +7°C° 0.1 mm 1 mps 726 mmHg 88%
    18:00 +6°C° 0.1 mm 1 mps 726 mmHg 91%
    19:00 +6°C° 0.1 mm 1 mps 726 mmHg 94%
    20:00 +5°C° 0.2 mm 1 mps 725 mmHg 94%
    21:00 +5°C° 0.2 mm 1 mps 725 mmHg 95%
    22:00 +5°C° 0.2 mm 1 mps 724 mmHg 95%
    23:00 +5°C° 0.4 mm 1 mps 724 mmHg 96%

    Day after tomorrow, 2 March, Monday

    Time Temperature Precipitation Wind Pressure Humidity
    00:00 +4°C° 0.4 mm 0 mps 723 mmHg 97%
    01:00 +4°C° 0.4 mm 0 mps 722 mmHg 97%
    02:00 +5°C° 0.6 mm 1 mps 722 mmHg 97%
    03:00 +5°C° 0.6 mm 1 mps 722 mmHg 96%
    04:00 +4°C° 0.6 mm 2 mps 722 mmHg 96%
    05:00 +4°C° 0.1 mm 2 mps 722 mmHg 95%
    06:00 +4°C° 0.1 mm 2 mps 722 mmHg 94%
    07:00 +3°C° 0.1 mm 3 mps 723 mmHg 94%
    08:00 +5°C° 0 mm 2 mps 723 mmHg 87%
    09:00 +6°C° 0 mm 2 mps 723 mmHg 80%
    10:00 +7°C° 0 mm 2 mps 723 mmHg 74%
    11:00 +8°C° 0 mm 2 mps 722 mmHg 70%
    12:00 +10°C° 0 mm 3 mps 722 mmHg 66%
    13:00 +11°C° 0 mm 3 mps 722 mmHg 63%
    14:00 +11°C° 0 mm 3 mps 721 mmHg 66%
    15:00 +11°C° 0 mm 3 mps 720 mmHg 69%
    16:00 +10°C° 0 mm 3 mps 719 mmHg 72%
    17:00 +9°C° 0 mm 2 mps 719 mmHg 76%
    18:00 +8°C° 0 mm 2 mps 718 mmHg 80%
    19:00 +7°C° 0 mm 2 mps 718 mmHg 84%
    20:00 +7°C° 0 mm 2 mps 718 mmHg 84%
    21:00 +7°C° 0 mm 2 mps 718 mmHg 85%
    22:00 +7°C° 0 mm 2 mps 718 mmHg 86%
    23:00 +7°C° 0.1 mm 2 mps 718 mmHg 88%

    3 March, Tuesday

    Time Temperature Precipitation Wind Pressure Humidity
    00:00 +7°C° 0.1 mm 2 mps 718 mmHg 90%
    01:00 +8°C° 0.1 mm 1 mps 718 mmHg 91%
    02:00 +5°C° 0.8 mm 3 mps 718 mmHg 92%
    03:00 +4°C° 0.8 mm 4 mps 718 mmHg 93%
    04:00 +3°C° 0.8 mm 5 mps 718 mmHg 94%
    05:00 +2°C° 1.1 mm 5 mps 719 mmHg 95%
    06:00 +2°C° 1.1 mm 5 mps 719 mmHg 95%
    07:00 +2°C° 1.1 mm 5 mps 720 mmHg 96%
    08:00 +1°C° 0.8 mm 5 mps 721 mmHg 96%
    09:00 +1°C° 0.8 mm 5 mps 722 mmHg 95%
    10:00 +1°C° 0.8 mm 5 mps 722 mmHg 95%
    11:00 +1°C° 0.5 mm 5 mps 723 mmHg 93%
    12:00 +2°C° 0.5 mm 5 mps 723 mmHg 90%
    13:00 +2°C° 0.5 mm 5 mps 723 mmHg 88%
    14:00 +2°C° 0.2 mm 5 mps 723 mmHg 85%
    15:00 +2°C° 0.2 mm 5 mps 724 mmHg 82%
    16:00 +3°C° 0.2 mm 5 mps 724 mmHg 79%
    17:00 +3°C° 0.1 mm 4 mps 725 mmHg 80%
    18:00 +3°C° 0.1 mm 4 mps 725 mmHg 80%
    19:00 +3°C° 0.1 mm 4 mps 726 mmHg 81%
    20:00 +1°C° 0 mm 4 mps 726 mmHg 82%
    21:00 +1°C° 0 mm 5 mps 726 mmHg 83%
    22:00 +1°C° 0 mm 5 mps 726 mmHg 84%
    23:00 +1°C° 0 mm 5 mps 727 mmHg 85%

    4 March, Wednesday

    Time Temperature Precipitation Wind Pressure Humidity
    00:00 +1°C° 0 mm 5 mps 727 mmHg 86%
    01:00 +1°C° 0 mm 5 mps 727 mmHg 88%
    02:00 0°C° 0 mm 5 mps 727 mmHg 87%
    03:00 0°C° 0 mm 5 mps 727 mmHg 87%
    04:00 0°C° 0 mm 5 mps 727 mmHg 87%
    05:00 0°C° 0.1 mm 5 mps 727 mmHg 88%
    06:00 0°C° 0.1 mm 5 mps 727 mmHg 90%
    07:00 -1°C° 0.1 mm 5 mps 727 mmHg 91%
    08:00 0°C° 0.1 mm 5 mps 727 mmHg 89%
    09:00 +1°C° 0.1 mm 5 mps 727 mmHg 87%
    10:00 +1°C° 0.1 mm 5 mps 727 mmHg 85%
    11:00 +2°C° 0.1 mm 5 mps 728 mmHg 82%
    12:00 +2°C° 0.1 mm 6 mps 728 mmHg 80%
    13:00 +3°C° 0.1 mm 6 mps 728 mmHg 77%
    14:00 +3°C° 0.1 mm 5 mps 727 mmHg 76%
    15:00 +3°C° 0.1 mm 5 mps 727 mmHg 76%
    16:00 +3°C° 0.1 mm 5 mps 727 mmHg 75%
    17:00 +3°C° 0 mm 4 mps 728 mmHg 78%
    18:00 +2°C° 0 mm 3 mps 728 mmHg 82%
    19:00 +2°C° 0 mm 2 mps 729 mmHg 85%
    20:00 +1°C° 0 mm 2 mps 729 mmHg 86%
    21:00 +1°C° 0 mm 2 mps 730 mmHg 87%
    22:00 +1°C° 0 mm 2 mps 730 mmHg 87%
    23:00 +1°C° 0 mm 2 mps 730 mmHg 88%

    5 March, Thursday

    Time Temperature Precipitation Wind Pressure Humidity
    00:00 -1°C° 0 mm 2 mps 730 mmHg 89%
    01:00 -1°C° 0 mm 2 mps 730 mmHg 90%
    02:00 -1°C° 0 mm 2 mps 730 mmHg 91%
    03:00 -1°C° 0 mm 2 mps 730 mmHg 92%
    04:00 -1°C° 0 mm 2 mps 730 mmHg 93%
    05:00 +1°C° 0.1 mm 2 mps 730 mmHg 94%
    06:00 +1°C° 0.1 mm 2 mps 730 mmHg 94%
    07:00 +1°C° 0.1 mm 2 mps 730 mmHg 95%
    08:00 +2°C° 0.1 mm 2 mps 730 mmHg 91%
    09:00 +3°C° 0.1 mm 2 mps 730 mmHg 87%
    10:00 +5°C° 0.1 mm 2 mps 729 mmHg 83%
    11:00 +7°C° 0 mm 1 mps 729 mmHg 77%
    12:00 +8°C° 0 mm 1 mps 729 mmHg 72%
    13:00 +9°C° 0 mm 1 mps 728 mmHg 67%
    14:00 +9°C° 0 mm 1 mps 728 mmHg 68%
    15:00 +9°C° 0 mm 1 mps 727 mmHg 68%
    16:00 +9°C° 0 mm 1 mps 726 mmHg 69%
    17:00 +7°C° 0 mm 1 mps 726 mmHg 73%
    18:00 +6°C° 0 mm 1 mps 726 mmHg 77%
    19:00 +5°C° 0 mm 1 mps 726 mmHg 81%
    20:00 +4°C° 0 mm 1 mps 726 mmHg 80%
    21:00 +4°C° 0 mm 1 mps 726 mmHg 80%
    22:00 +4°C° 0 mm 1 mps 726 mmHg 79%
    23:00 +4°C° 0 mm 1 mps 726 mmHg 79%
    Show more